Погода в Больших Мордовские Пошаты

Россия / Республика Мордовия     54°39′35″N   43°42′11″E
темп.,
°C
ветер,
м/с
пор.,
м/с
влажн.,
%
обл.,
%
осадки,
мм/ч
давл.,
гПа
погр.,
м
12 апреля, пн
пн1200:00+3св3976100 0.0 1033201
03:00+3св51379100 0.0 1034324
06:00+5всв51473100 0.0 1034439
09:00+6всв61372100 0.0 1034436
12:00+12в61069100 0.0 1033699
15:00+13в687096 0.0 1033658
18:00+11в598459 0.0 1032512
21:00+9в41094100 0.0 1033249
13 апреля, вт
вт1300:00+8в3995100 0.0 1033186
03:00+7вюв3793100 0.0 1032123
06:00+7юв3886100 0.0 1032146
09:00+13ююв595451 0.0 1032405
12:00+18ю573769 0.0 1031997
15:00+19ю563216 0.0 10301326
18:00+16ююв374714 0.0 1029147
21:00+11юв366233 0.0 102977
14 апреля, ср
ср1400:00+9ююв376798 0.0 1029104
03:00+7юв357269 0.0 102979
06:00+7юв35735 0.0 102886
09:00+13юв47485 0.0 1027406
12:00+17ююв56330 0.0 10251012
15:00+18ююв57310 0.0 10241329
18:00+15ююв36472 0.0 1023126
21:00+11ююв33615 0.0 102332
15 апреля, чт
чт1500:00+9ююв22685 0.0 102223
03:00+7юв22775 0.0 102218
06:00+7юв22800 0.0 102128
09:00+13ююв23570 0.0 1021351
12:00+17ююв23420 0.0 10201261
15:00+18ю23363 0.0 10181718
18:00+16зюз11461 0.0 101811
21:00+12вюв22600 0.0 101711
16 апреля, пт
пт1600:00+10ююв11655 0.0 101710
03:00+9юв1166100 0.0 101610
06:00+9юв11675 0.0 101610
09:00+15ссв00505 0.0 1016295
12:00+19зсз124133 0.0 10151491
15:00+18с454299 0.0 10151201
18:00+10ссв8127361 0.0 1017614
21:00+6св7147363 0.0 1020820